Location: Unspecified
(38.9820°N, 94.4650°W)
Time: 00:03:10
(UTC-05:00)

Okean 3 - Visible Passes

Search period start: 30 August 2016 00:00
Search period end: 09 September 2016 00:00
Orbit: 577 x 604 km, 82.5° (Epoch: 29 August)

Date Brightness Start Highest point End Pass type
(mag) Time Alt. Az. Time Alt. Az. Time Alt. Az.
01 Sep 6.9 05:08:05 10° E 05:08:45 10° E 05:09:25 10° ENE visible
02 Sep 6.4 05:14:26 10° SE 05:17:02 16° E 05:19:38 10° NE visible
03 Sep 5.9 05:21:56 10° SE 05:25:21 24° E 05:28:46 10° NE visible
04 Sep 5.0 05:29:49 10° SSE 05:33:42 37° E 05:37:35 10° NNE visible
05 Sep 4.1 05:37:57 10° S 05:42:06 58° E 05:46:14 10° NNE visible
06 Sep 3.4 05:46:19 10° S 05:50:32 88° WNW 05:54:44 10° N visible
07 Sep 6.7 04:21:53 10° E 04:22:17 10° E 04:22:42 10° ENE visible
07 Sep 3.5 05:54:51 10° SSW 05:58:59 56° W 06:03:08 10° N visible
08 Sep 6.3 04:28:01 10° SE 04:30:33 16° E 04:33:06 10° NE visible
08 Sep 4.1 06:03:37 10° SW 06:07:30 35° WNW 06:11:23 10° N visible
